Regional Weather Roundup
Issued by NWS Grand Forks, ND

Home | Current Version | Previous Version | Text Only | Print | Product List | Glossary Off
Versions: 1 2 3 4 5 6 7 8 9 10 11 12 13 14 15 16 17 18 19 20 21 22 23 24 25 26 27 28 29 30 31 32 33 34 35 36 37 38 39 40 41 42 43 44 45 46 47 48 49 50

000
ASUS43 KFGF 220910
RWRFGF
PRAIRIE TO PINES  WEATHER ROUNDUP
NATIONAL WEATHER SERVICE EASTERN NORTH DAKOTA/GRAND FORKS ND
400 AM CDT SUN OCT 22 2017

 **SATELLITE DATA USED TO AUGMENT SKY COVER AT AUTOMATED STATIONS**
 *****  WEATHER ACROSS EASTERN NORTH DAKOTA  *****

CITY           SKY/WX    TMP DP  RH WIND       PRES   REMARKS
GRAND FORKS    FAIR      45  38  76 SW10      29.72S
GRAND FRKS AFB FAIR      44  35  72 W12       29.72R
DEVILS LAKE    FAIR      42  35  76 W17       29.74R
FARGO          FAIR      45  37  73 SW13      29.80S
WAHPETON ARPT  NOT AVBL
$$

 ***** WEATHER ACROSS CENTRAL AND WESTERN NORTH DAKOTA  *****

CITY           SKY/WX    TMP DP  RH WIND       PRES   REMARKS
BISMARCK       FAIR      36  28  73 SW5       29.87R
MINOT          FAIR      39  29  67 SW14      29.76S
JAMESTOWN      FAIR      41  32  70 W12       29.82R
MINOT AFB      FAIR      35  28  75 W10       29.74S
GARRISON         N/A     36  30  79 W10       29.81R
WILLISTON      FAIR      32  24  72 SW6       29.79F
DICKINSON      FAIR      34  23  64 SW12      29.84F
HETTINGER      FAIR      29  20  69 W3        29.91F
$$

 *****  OTHER AIRPORT OBSERVATIONS IN OUR AREA  *****

CITY           SKY/WX    TMP DP  RH WIND       PRES   REMARKS
WALHALLA       FAIR     N/A N/A N/A W15G23    29.63S
GRAFTON AIRPOR NOT AVBL
VALLEY CITY AR NOT AVBL
CANDO          FAIR      39  36  87 W14       29.73R
CAVALIER APRT  CLOUDY    48  41  76 W13       29.64S
GWINNER        SUNNY     39  36  87 SW9       29.86S
SHEYENNE NWR     N/A     39  36  88 SW6       29.95S
ROLLA          FLURRIES  36  34  93 SW16      29.69R
 ***** THE ABOVE OBSERVATIONS ARE NON NWS ARE NOT QUALITY
       CONTROLLED AND MAY MIS-REPORT RAIN FOR SNOW...
$$

  *****  WEATHER ACROSS NORTHERN MINNESOTA  *****

CITY           SKY/WX    TMP DP  RH WIND       PRES   REMARKS
FLAG ISLAND    CLOUDY    46  45  93 SW13      29.58S
WARROAD        CLOUDY    45  41  87 SW12G18   29.63R
ROSEAU         LGT RAIN  45  39  81 SW13G18   29.63S
HALLOCK        CLOUDY    48  39  71 W17       29.65R
THF RVR FALLS  CLOUDY    47  37  68 W15       29.71S
BAUDETTE       CLOUDY    49  40  71 SW13G22   29.63S
WASKISH        CLOUDY    48  41  76 SW20G28   29.67S
CROOKSTON      FAIR      46  37  71 SW15      29.74R
STEPHEN NDAWN    N/A     46  39  76 W9          N/A
GREENBUSH NDAW   N/A     46  37  71 SW12        N/A
$$
  *****  WEATHER ACROSS CENTRAL AND WEST MINNESOTA  *****

CITY           SKY/WX    TMP DP  RH WIND       PRES   REMARKS
FOSSTON        CLOUDY    45  36  70 W13G23    29.75R
BEMIDJI        CLOUDY    47  37  68 SW15G21   29.73S
PARK RAPIDS    LGT RAIN  46  39  76 W14G25    29.78R
ELBOW LAKE     FAIR      41  37  88 SW7       29.86S
WADENA         FAIR      45  37  76 W8        29.81S
DETROIT LAKES  MOCLDY    46  37  71 W10       29.81S
MOORHEAD       FAIR      45  36  70 SW8       29.81S
FERGUS FALLS   FAIR      41  37  87 W7        29.84F
MORRIS MN      FAIR      41  37  87 W6        29.87S
STAPLES        FAIR      45  37  76 W14       29.81R
$$
  *****  WEATHER ELSEWHERE ACROSS MINNESOTA  *****

CITY           SKY/WX    TMP DP  RH WIND       PRES   REMARKS
DULUTH         FAIR      46  45  96 W13       29.76R
INTRNTL FALLS  FAIR      45  43  93 SW8       29.65S
ELY            CLOUDY    48  46  93 SW10      29.71R
CLOQUET        FAIR      46  43  87 SW8       29.78R
WHEATON        FAIR      45  36  70 SW7       29.89S
BRAINERD       FAIR     N/A N/A N/A SW13      29.81S
HIBBING        FAIR      44  43  96 SW3       29.73S
ALEXANDRIA     FAIR      46  39  76 W9        29.86F
SAINT CLOUD    FAIR      46  42  86 W8        29.86S
MINNEAPOLIS    FAIR      50  44  80 W8        29.89R
$$

  *****  WEATHER ACROSS SOUTH DAKOTA  *****

CITY           SKY/WX    TMP DP  RH WIND       PRES   REMARKS
SIOUX FALLS    FAIR      39  35  86 CALM      29.97R
BROOKINGS      FAIR      41  35  79 W7        29.94R
WATERTOWN      FAIR      39  35  86 W9        29.89F
HURON          FAIR      40  33  76 W9        29.95S
SISSETON         N/A     47  36  65 W10       29.85F
ABERDEEN       FAIR      34  31  88 SW6       29.91R
MITCHELL       FAIR      42  33  70 W10       29.98S
PIERRE         FAIR      39  29  67 W10       29.96S
MOBRIDGE       FAIR      34  28  79 N6        29.90S
RAPID CITY     FAIR      31  16  54 W7        29.97F WCI  24
$$

  *****  SOME WEATHER IN NEARBY STATES *****

CITY           SKY/WX    TMP DP  RH WIND       PRES   REMARKS
GLASGOW MT     FAIR      34  22  61 S3        29.77F
GREAT FALLS MT FAIR      48  29  47 SW22G32   29.73F
CHEYENNE WY    FAIR      42  15  33 W16G25    30.12R
SCOTTSBLUFF NE FAIR      42  19  39 W10       30.08R
OMAHA NE       MOCLDY    48  40  73 NW5       30.01S
DES MOINES IA  CLOUDY    51  46  83 NW7       29.96S
DAVENPORT IA   LGT RAIN  61  59  93 NW6       29.88F FOG
CHICAGO IL     CLOUDY    67  56  67 S17       29.94F
EAU CLAIRE WI  CLOUDY    52  47  83 W8        29.86R
LA CROSSE WI   LGT RAIN  55  53  93 W5        29.88S
$$

  *****  SOME NATIONAL WEATHER *****

CITY           SKY/WX    TMP DP  RH WIND       PRES   REMARKS
LA GUARDIA NY  FAIR      61  49  64 CALM      30.36R
RALEIGH NC     MOCLDY    53  53 100 CALM      30.34S
ATLANTA GA     FAIR      58  55  90 E8        30.23F
NEW ORLEANS LA MOCLDY    77  75  93 E13       30.00F
OKLAHOMA CITY  CLOUDY    53  49  86 N10       30.07R
ALBUQUERQUE NM FAIR      47   4  17 NW5       30.33R
SALT LAKE CITY FAIR      46  24  42 SE8       30.31F
LOS ANGELES CA FAIR      63  50  62 E6        30.10R
BOISE ID       FAIR      47  39  74 SE15      30.20R
SEATTLE WA     LGT RAIN  55  53  93 SW16G26   29.74R
$$

*** WEATHER ACROSS MANITOBA...SASKATCHEWAN AND ONTARIO ***
                ***ONTARIO***

CITY           SKY/WX    TMP DP  RH WIND       PRES   REMARKS
GERALDTON      MOCLDY    57  54  88 S12G20    29.72F
THUNDER BAY    CLOUDY    63  57  82 S9        29.66S
SIOUX LOOKOUT  CLOUDY    50  46  87 SW10G18   29.56F
TORONTO        MOCLDY    52  50  93 NW2       30.24R
BIG TROUT LK   CLOUDY    55  55 100 S13       29.42F
PICKLE LAKE    NOT AVBL
DRYDEN         MOCLDY    46  45  93 SW13G18   29.56S
KENORA         MOCLDY    48  43  81 SW16G22   29.55F
$$
                *** MANITOBA***

CITY           SKY/WX    TMP DP  RH WIND       PRES   REMARKS
BRANDON        CLOUDY    45  39  81 W17G23    29.60S
DAUPHIN        CLOUDY    41  36  81 W15G30    29.54R
ISLAND LAKE    NOT AVBL
PILOT MOUND      N/A     45  36  70 W13G20      N/A
THE PAS        LGT RAIN  36  32  87 W20G26    29.44S
THOMPSON       LGT RAIN  36  36 100 NW8       29.24F
WINNIPEG       CLOUDY    46  37  71 W14       29.55F
LYNN LAKE      LGT SNOW  32  32 100 NW9       29.40F WCI  24
CHURCHILL      CLOUDY    37  36  93 NE7       29.33F
GILLAM         LGT RAIN  50  46  87 NE5       29.21F
$$
                ***SASKATCHEWAN***

CITY           SKY/WX    TMP DP  RH WIND       PRES   REMARKS
ESTEVAN        PTCLDY    30  25  80 SW8       29.73S WCI  23
KINDERSLEY     PTCLDY    30  27  86 S9        29.57F WCI  22
LLOYDMINSTER   CLEAR     32  27  80 SE10      29.52F WCI  24
PRINCE ALBERT  FOG       28  28 100 CALM      29.61F VSB 1/4
REGINA         CLEAR     25  23  93 SW7       29.69F WCI  17
YORKTON        CLOUDY    39  36  87 W21G26    29.61R
N. BATTLEFORD  CLEAR     28  25  86 SE7       29.60F WCI  21
LA RONGE       CLOUDY    37  34  87 NW8       29.57S
SASKATOON      CLEAR     28  27  93 SW7       29.64S WCI  21
SWIFT CURRENT  PTCLDY    32  23  69 S13       29.64F WCI  22
$$
NOTE: THESE ARE AUTOMATED STATIONS WITH LIMITED QUALITY CONTROL
      "FAIR" INDICATES FEW OR NO CLOUDS BELOW 12,000 FEET WITH NO
      SIGNIFICANT WEATHER AND/OR OBSTRUCTIONS TO VISIBILITY.
      SKY/WX - SKY CONDITION AND SIGNIFICANT WEATHER.
      TMP - AIR TEMPERATURE.    DP   - DEWPOINT TEMPERATURE.
      RH  - RELATIVE HUMIDITY.  PRES - PRESSURE.
      HX  - HEAT INDEX.         WCI  - WIND CHILL INDEX.
$



USA.gov is the U.S. government's official web portal to all federal, state and local government web resources and services.